TimeEST,TemperatureF,Dew PointF,Humidity,Sea Level PressureIn,VisibilityMPH,Wind Direction,Wind SpeedMPH,Gust SpeedMPH,PrecipitationIn,Events,Conditions,WindDirDegrees,DateUTC
12:14 AM,23.0,19.4,86,29.90,10.0,Calm,Calm,-,N/A,,Overcast,0,2012-12-11 05:14:00
12:34 AM,23.0,19.4,86,29.89,10.0,Calm,Calm,-,N/A,,Overcast,0,2012-12-11 05:34:00
12:55 AM,23.0,19.4,86,29.89,10.0,Calm,Calm,-,N/A,Snow,Light Snow,0,2012-12-11 05:55:00
1:14 AM,23.0,19.4,86,29.88,10.0,Calm,Calm,-,N/A,,Overcast,0,2012-12-11 06:14:00
1:35 AM,24.8,19.4,80,29.88,10.0,Calm,Calm,-,N/A,,Overcast,0,2012-12-11 06:35:00
1:54 AM,23.0,19.4,86,29.87,10.0,NW,4.6,-,N/A,,Overcast,310,2012-12-11 06:54:00
2:14 AM,23.0,19.4,86,29.88,10.0,WNW,3.5,-,N/A,,Overcast,290,2012-12-11 07:14:00
2:34 AM,23.0,19.4,86,29.88,10.0,Calm,Calm,-,N/A,,Overcast,0,2012-12-11 07:34:00
2:54 AM,23.0,19.4,86,29.89,10.0,Calm,Calm,-,N/A,,Overcast,0,2012-12-11 07:54:00
3:15 AM,21.2,17.6,86,29.89,10.0,Calm,Calm,-,N/A,,Overcast,0,2012-12-11 08:15:00
3:34 AM,19.4,17.6,93,29.89,10.0,Calm,Calm,-,N/A,,Overcast,0,2012-12-11 08:34:00
3:55 AM,19.4,15.8,86,29.89,10.0,Calm,Calm,-,N/A,,Overcast,0,2012-12-11 08:55:00
4:15 AM,19.4,17.6,93,29.89,10.0,Calm,Calm,-,N/A,,Overcast,0,2012-12-11 09:15:00
4:34 AM,19.4,17.6,93,29.88,10.0,ENE,3.5,-,N/A,,Overcast,70,2012-12-11 09:34:00
4:55 AM,19.4,15.8,86,29.88,10.0,Calm,Calm,-,N/A,,Mostly Cloudy,0,2012-12-11 09:55:00
5:14 AM,19.4,17.6,93,29.88,10.0,Calm,Calm,-,N/A,,Overcast,0,2012-12-11 10:14:00
5:34 AM,19.4,15.8,86,29.88,10.0,East,3.5,-,N/A,,Overcast,90,2012-12-11 10:34:00
5:55 AM,19.4,15.8,86,29.87,10.0,East,3.5,-,N/A,,Overcast,100,2012-12-11 10:55:00
6:14 AM,21.2,17.6,86,29.87,10.0,East,4.6,-,N/A,,Overcast,100,2012-12-11 11:14:00
6:35 AM,23.0,17.6,80,29.87,10.0,East,4.6,-,N/A,,Overcast,90,2012-12-11 11:35:00
6:55 AM,23.0,17.6,80,29.87,10.0,ENE,3.5,-,N/A,,Overcast,70,2012-12-11 11:55:00
7:14 AM,21.2,17.6,86,29.87,10.0,East,4.6,-,N/A,Snow,Light Snow,80,2012-12-11 12:14:00
7:35 AM,23.0,19.4,86,29.87,5.0,East,4.6,-,N/A,Snow,Light Snow,100,2012-12-11 12:35:00
7:54 AM,24.8,19.4,80,29.87,1.8,East,4.6,-,N/A,Snow,Light Snow,100,2012-12-11 12:54:00
8:14 AM,24.8,21.2,86,29.87,1.5,Calm,Calm,-,N/A,Snow,Light Snow,0,2012-12-11 13:14:00
8:35 AM,23.0,19.4,86,29.87,0.2,NNW,3.5,-,N/A,Snow,Snow,330,2012-12-11 13:35:00
9:15 AM,24.8,23.0,93,29.87,10.0,Calm,Calm,-,N/A,,Overcast,0,2012-12-11 14:15:00
9:34 AM,26.6,23.0,86,29.86,10.0,Calm,Calm,-,N/A,,Mostly Cloudy,0,2012-12-11 14:34:00
9:54 AM,23.0,19.4,86,29.86,10.0,Calm,Calm,-,N/A,,Mostly Cloudy,0,2012-12-11 14:54:00
10:15 AM,26.6,23.0,86,29.86,10.0,West,3.5,-,N/A,,Mostly Cloudy,270,2012-12-11 15:15:00
10:34 AM,28.4,24.8,86,29.86,10.0,WSW,4.6,-,N/A,,Overcast,250,2012-12-11 15:34:00
10:55 AM,28.4,24.8,86,29.86,7.0,WSW,4.6,-,N/A,Snow,Light Snow,250,2012-12-11 15:55:00
11:14 AM,30.2,24.8,80,29.85,10.0,WSW,4.6,-,N/A,,Overcast,250,2012-12-11 16:14:00
11:35 AM,30.2,24.8,80,29.84,10.0,SW,5.8,-,N/A,,Overcast,230,2012-12-11 16:35:00
11:55 AM,30.2,24.8,80,29.83,10.0,WSW,8.1,-,N/A,,Overcast,240,2012-12-11 16:55:00
12:14 PM,30.2,23.0,75,29.83,10.0,SSW,10.4,-,N/A,,Overcast,210,2012-12-11 17:14:00
12:35 PM,30.2,23.0,75,29.82,10.0,SW,11.5,20.7,N/A,,Overcast,220,2012-12-11 17:35:00
12:54 PM,30.2,19.4,64,29.82,10.0,SW,12.7,21.9,N/A,,Overcast,220,2012-12-11 17:54:00
1:14 PM,30.2,19.4,64,29.82,10.0,SSW,15.0,25.3,N/A,,Overcast,210,2012-12-11 18:14:00
1:35 PM,30.2,17.6,60,29.81,10.0,SSW,13.8,25.3,N/A,,Mostly Cloudy,210,2012-12-11 18:35:00
1:54 PM,30.2,15.8,55,29.81,10.0,SSW,11.5,23.0,N/A,,Mostly Cloudy,210,2012-12-11 18:54:00
2:15 PM,30.2,17.6,60,29.81,10.0,SSW,12.7,20.7,N/A,,Overcast,210,2012-12-11 19:15:00
2:34 PM,30.2,17.6,60,29.80,10.0,SSW,13.8,21.9,N/A,,Overcast,210,2012-12-11 19:34:00
2:54 PM,30.2,15.8,55,29.80,10.0,SW,12.7,18.4,N/A,,Overcast,220,2012-12-11 19:54:00
3:15 PM,30.2,15.8,55,29.80,10.0,SW,12.7,18.4,N/A,,Overcast,220,2012-12-11 20:15:00
3:34 PM,30.2,17.6,60,29.80,10.0,SSW,10.4,19.6,N/A,,Overcast,210,2012-12-11 20:34:00
3:55 PM,30.2,17.6,60,29.80,10.0,SW,15.0,21.9,N/A,,Overcast,220,2012-12-11 20:55:00
4:14 PM,30.2,17.6,60,29.80,10.0,SW,17.3,23.0,N/A,,Overcast,220,2012-12-11 21:14:00
4:35 PM,30.2,19.4,64,29.80,7.0,SW,10.4,27.6,N/A,Snow,Light Snow,230,2012-12-11 21:35:00
4:55 PM,28.4,19.4,69,29.81,7.0,SSW,13.8,26.5,N/A,Snow,Light Snow,210,2012-12-11 21:55:00
5:14 PM,28.4,21.2,74,29.81,7.0,SSW,12.7,26.5,N/A,Snow,Light Snow,210,2012-12-11 22:14:00
5:35 PM,28.4,21.2,74,29.81,10.0,SSW,18.4,24.2,N/A,Snow,Light Snow,210,2012-12-11 22:35:00
5:54 PM,28.4,21.2,74,29.82,10.0,SW,9.2,23.0,N/A,,Overcast,220,2012-12-11 22:54:00
6:14 PM,28.4,21.2,74,29.83,10.0,WSW,10.4,17.3,N/A,Snow,Light Snow,240,2012-12-11 23:14:00
6:35 PM,26.6,21.2,80,29.84,10.0,WSW,8.1,-,N/A,Snow,Light Snow,240,2012-12-11 23:35:00
6:54 PM,26.6,19.4,74,29.84,10.0,WSW,11.5,17.3,N/A,Snow,Light Snow,240,2012-12-11 23:54:00
7:15 PM,26.6,19.4,74,29.85,10.0,WSW,11.5,18.4,N/A,,Overcast,250,2012-12-12 00:15:00
7:34 PM,26.6,19.4,74,29.86,10.0,West,9.2,-,N/A,,Overcast,260,2012-12-12 00:34:00
7:54 PM,26.6,17.6,69,29.86,10.0,West,11.5,16.1,N/A,,Overcast,260,2012-12-12 00:54:00
8:15 PM,24.8,17.6,74,29.87,10.0,WSW,9.2,-,N/A,,Overcast,250,2012-12-12 01:15:00
8:34 PM,24.8,17.6,74,29.88,10.0,WSW,10.4,18.4,N/A,,Overcast,240,2012-12-12 01:34:00
8:55 PM,24.8,15.8,69,29.88,10.0,WSW,8.1,-,N/A,,Overcast,250,2012-12-12 01:55:00
9:14 PM,24.8,15.8,69,29.89,10.0,WSW,9.2,18.4,N/A,,Overcast,250,2012-12-12 02:14:00
9:34 PM,24.8,14.0,64,29.90,10.0,WSW,8.1,-,N/A,,Overcast,250,2012-12-12 02:34:00
9:55 PM,23.0,14.0,68,29.91,10.0,WSW,6.9,-,N/A,,Overcast,250,2012-12-12 02:55:00
10:14 PM,23.0,15.8,74,29.92,10.0,WSW,10.4,16.1,N/A,,Overcast,250,2012-12-12 03:14:00
10:35 PM,23.0,15.8,74,29.92,10.0,West,6.9,-,N/A,,Overcast,260,2012-12-12 03:35:00
10:54 PM,23.0,15.8,74,29.93,10.0,West,4.6,-,N/A,Snow,Light Snow,260,2012-12-12 03:54:00
11:14 PM,23.0,14.0,68,29.94,10.0,WSW,5.8,-,N/A,Snow,Light Snow,250,2012-12-12 04:14:00
11:34 PM,23.0,14.0,68,29.94,10.0,WSW,4.6,-,N/A,,Overcast,250,2012-12-12 04:34:00
11:55 PM,21.2,14.0,74,29.95,10.0,WSW,5.8,-,N/A,,Overcast,250,2012-12-12 04:55:00